Location: Black Swamp Observatory
(41.3920°N, 84.1250°W)
Time: 15:21:52
(UTC-04:00)

Amateur Radio Satellites - All Passes

Search period start: 27 August 2015 14:51
Search period end: 28 August 2015 14:51
Location: Black Swamp Observatory, 41.3920°N, 84.1250°W

Satellite Date Start Highest point End Downlink Frequencies (MHz)
Time Altitude Azimuth
Gurwin Techsat 1B 27 Aug 14:57:28 15:02:43 70° 75° (ENE) 15:08:03 435.225
Oscar 19 27 Aug 14:57:28 15:02:14 37° 263° (W) 15:07:01 437.125/150
Cosmos 2499 27 Aug 14:58:05 15:02:20 15° 55° (NE) 15:07:00 435.465 / 435.565
JAS-2 27 Aug 15:07:13 15:14:20 49° 68° (ENE) 15:21:51 435.910
ISS 27 Aug 15:10:55 15:12:41 14° 3° (N) 15:14:26 145.825
TISAT 1 27 Aug 15:23:17 15:26:30 20° 293° (WNW) 15:29:36 437.305
BEESAT 27 Aug 15:26:59 15:31:44 69° 101° (E) 15:36:29 436.000
AO-7 27 Aug 15:33:19 15:40:49 40° 61° (ENE) 15:48:27 29.400- 29.500
ITAMSAT 1 27 Aug 15:44:54 15:49:57 51° 260° (W) 15:55:00 435.822/435.867
SWISSCUBE 27 Aug 15:52:15 15:56:57 61° 286° (WNW) 16:01:37 437.505
STARS 27 Aug 16:16:05 16:19:30 22° 93° (E) 16:23:00 437.465
KKS-1 27 Aug 16:21:31 16:25:48 42° 98° (E) 16:30:04 437.445
GONETS M04 27 Aug 16:25:04 16:33:28 51° 270° (W) 16:41:48
RS-15 27 Aug 16:25:31 16:33:35 26° 104° (ESE) 16:42:20 29.354- 29.394
ITUPSAT 1 27 Aug 16:28:42 16:32:52 30° 291° (WNW) 16:36:57 437.325
HORYU 2 27 Aug 16:30:14 16:34:40 61° 74° (ENE) 16:39:07 437.375
Gurwin Techsat 1B 27 Aug 16:40:20 16:43:20 15° 272° (W) 16:46:03 435.225
ISS 27 Aug 16:47:07 16:49:54 26° 22° (NNE) 16:52:42 145.825
Cosmos 2499 27 Aug 16:48:47 16:57:35 71° 79° (E) 17:05:49 435.465 / 435.565
JAS-2 27 Aug 16:52:37 16:59:30 38° 267° (W) 17:06:39 435.910
BEESAT 27 Aug 17:06:34 17:09:05 14° 297° (WNW) 17:11:22 436.000
BEESAT 3 27 Aug 17:25:20 17:29:23 76° 302° (WNW) 17:33:29 437.485
AO-7 27 Aug 17:25:29 17:33:31 49° 260° (W) 17:41:31 29.400- 29.500
BEESAT 2 27 Aug 17:29:58 17:34:04 90° 142° (SE) 17:38:12 435.950
AIST 2 27 Aug 17:33:44 17:36:48 20° 112° (ESE) 17:39:59 435.215
MOZHAYETS 4 27 Aug 17:34:53 17:39:07 37° 97° (E) 17:43:20
CUTE-I 27 Aug 17:35:20 17:37:56 14° 61° (ENE) 17:40:46 437.470
STARS 27 Aug 17:51:59 17:56:03 35° 290° (WNW) 18:00:03 437.465
KKS-1 27 Aug 17:58:54 18:02:09 19° 294° (WNW) 18:05:17 437.445
HORYU 2 27 Aug 18:09:39 18:11:46 13° 271° (W) 18:13:40 437.375
ISS 27 Aug 18:23:17 18:26:27 49° 221° (SW) 18:29:35 145.825
Cubesat XI-IV 27 Aug 18:26:04 18:30:58 39° 69° (ENE) 18:35:55 437.490
RS-15 27 Aug 18:33:51 18:44:49 82° 305° (NW) 18:56:16 29.354- 29.394
Cosmos 2499 27 Aug 18:43:11 18:49:58 25° 278° (W) 18:56:09 435.465 / 435.565
BEESAT 3 27 Aug 19:06:49 19:08:04 11° 323° (NW) 19:09:11 437.485
BEESAT 2 27 Aug 19:10:50 19:12:45 13° 322° (NW) 19:14:32 435.950
AIST 2 27 Aug 19:11:05 19:15:08 41° 309° (NW) 19:19:10 435.215
CUTE-I 27 Aug 19:12:04 19:17:24 81° 255° (WSW) 19:22:46 437.470
MOZHAYETS 4 27 Aug 19:12:35 19:16:08 22° 293° (WNW) 19:19:35
CUBESAT XI-V 27 Aug 19:15:06 19:19:22 37° 97° (E) 19:23:41 437.345
GOMX 1 27 Aug 19:20:29 19:21:06 10° 60° (ENE) 19:21:58 467.674
O/OREOS (USA 219) 27 Aug 19:43:54 19:46:05 14° 100° (E) 19:48:31 437.305
DOVE 4 27 Aug 19:55:27 19:58:00 15° 63° (ENE) 20:00:48 437.250
AIST 1 27 Aug 19:57:48 20:01:15 24° 73° (ENE) 20:04:48
HO-68 27 Aug 19:58:27 20:04:09 27° 60° (ENE) 20:10:03 435.675
BRITE-PL 27 Aug 20:01:13 20:05:16 44° 72° (ENE) 20:09:36 437.365/2234.400
Cubesat XI-IV 27 Aug 20:06:42 20:11:12 26° 266° (W) 20:15:37 437.490
PRISM 27 Aug 20:10:43 20:13:57 23° 94° (E) 20:17:15 437.425
SEEDS 27 Aug 20:12:01 20:13:19 11° 64° (ENE) 20:14:50 437.485
STRAND 1 27 Aug 20:24:12 20:29:07 48° 99° (E) 20:34:04 437.568
Cosmos 2491 27 Aug 20:37:28 20:45:13 35° 69° (ENE) 20:53:09 435.465 / 435.565
COMPASS 1 27 Aug 20:40:19 20:43:08 18° 67° (ENE) 20:46:05 437.405
RS-15 27 Aug 20:49:48 20:59:21 30° 333° (NNW) 21:09:05 29.354- 29.394
YUBILEINY 27 Aug 20:50:51 20:55:23 16° 78° (ENE) 21:00:31 435.215
CUBESAT XI-V 27 Aug 20:52:59 20:56:38 23° 293° (WNW) 21:00:11 437.345
GOMX 1 27 Aug 20:54:07 20:58:29 85° 255° (WSW) 21:03:11 467.674
AAUSAT CUBESAT 2 27 Aug 20:54:24 20:57:34 22° 68° (ENE) 21:00:49 437.432
CUTE 1.7 + AOD 2 27 Aug 21:01:12 21:05:19 48° 73° (ENE) 21:09:29 437.475
CINEMA 3 27 Aug 21:13:48 21:18:05 41° 71° (ENE) 21:22:37 145.822/145.860
CANX-2 27 Aug 21:14:15 21:18:32 77° 77° (ENE) 21:22:52 2200.000
O/OREOS (USA 219) 27 Aug 21:20:37 21:25:04 56° 296° (WNW) 21:29:34 437.305
Oscar 11 27 Aug 21:25:13 21:28:31 22° 68° (ENE) 21:31:55 145.826/435.025
DOVE 4 27 Aug 21:30:50 21:35:14 58° 261° (W) 21:39:56 437.250
AIST 1 27 Aug 21:35:12 21:38:55 28° 269° (W) 21:42:34
CUBEBUG 2 27 Aug 21:36:10 21:40:14 32° 70° (ENE) 21:44:27 437.445
BRITE-PL 27 Aug 21:41:31 21:44:13 16° 272° (W) 21:46:48 437.365/2234.400
SEEDS 27 Aug 21:44:21 21:48:36 69° 260° (W) 21:52:52 437.485
HO-68 27 Aug 21:44:23 21:51:27 62° 258° (WSW) 21:58:35 435.675
PRISM 27 Aug 21:45:51 21:49:24 28° 291° (WNW) 21:52:54 437.425
HUMSAT D 27 Aug 21:49:30 21:49:32 10° 62° (ENE) 21:49:50 437.325/437.525
DELFI C3 27 Aug 21:51:52 21:55:13 26° 70° (ENE) 21:58:38 145.870
UWE-3 27 Aug 21:52:59 21:57:10 37° 71° (ENE) 22:01:28 435.000/436.395/437.385
ZACube-1 27 Aug 21:57:02 22:01:00 32° 70° (ENE) 22:05:05 437.345
STRAND 1 27 Aug 22:04:11 22:08:02 21° 295° (WNW) 22:11:45 437.568
FUNcube-1 27 Aug 22:04:28 22:08:34 36° 71° (ENE) 22:12:48 145.935
COMPASS 1 27 Aug 22:14:33 22:18:31 39° 262° (W) 22:22:30 437.405
AAUSAT CUBESAT 2 27 Aug 22:29:12 22:33:00 32° 264° (W) 22:36:46 437.432
Cosmos 2491 27 Aug 22:34:04 22:42:27 52° 270° (W) 22:50:46 435.465 / 435.565
CUTE 1.7 + AOD 2 27 Aug 22:39:02 22:41:33 15° 270° (W) 22:43:53 437.475
YUBILEINY 27 Aug 22:42:15 22:51:01 84° 97° (E) 22:59:54 435.215
DX 1 27 Aug 22:45:14 22:48:43 25° 68° (ENE) 22:52:20 434.975-435.025
AISAT 27 Aug 22:48:59 22:51:55 18° 66° (ENE) 22:55:01 437.250
UNISAT 6 27 Aug 22:51:51 22:52:15 10° 86° (E) 22:52:57 437.425
CINEMA 3 27 Aug 22:52:02 22:55:31 20° 270° (W) 22:58:59 145.822/145.860
Oscar 11 27 Aug 23:00:32 23:04:31 34° 264° (W) 23:08:29 145.826/435.025
50 SAT 27 Aug 23:03:39 23:06:56 26° 70° (ENE) 23:10:18 437.505
CUBEBUG 1 27 Aug 23:04:41 23:07:06 15° 65° (ENE) 23:09:42 437.445
UKube-1 27 Aug 23:04:46 23:08:41 36° 71° (ENE) 23:12:40 .
RS-15 27 Aug 23:08:28 23:16:50 22° 7° (N) 23:25:33 29.354- 29.394
CUBEBUG 2 27 Aug 23:13:07 23:16:57 25° 267° (W) 23:20:48 437.445
VELOX 1 27 Aug 23:17:28 23:21:24 34° 70° (ENE) 23:25:24 145.980
TIGRISAT 27 Aug 23:19:48 23:23:14 21° 92° (E) 23:26:43 435.000
HUMSAT D 27 Aug 23:20:21 23:24:39 82° 256° (WSW) 23:29:02 437.325/437.525
DELFI C3 27 Aug 23:26:51 23:30:14 24° 266° (W) 23:33:33 145.870
UWE-3 27 Aug 23:30:16 23:33:49 22° 268° (W) 23:37:20 435.000/436.395/437.385
ZACube-1 27 Aug 23:33:36 23:37:23 25° 267° (W) 23:41:08 437.345
ANTELSAT 27 Aug 23:34:26 23:38:30 31° 95° (E) 23:42:32 437.575/2403.000
Cosmos 2504 27 Aug 23:34:31 23:40:32 25° 82° (E) 23:47:08 435.465 / 435.565
QB50P2 27 Aug 23:38:18 23:39:41 12° 88° (E) 23:41:18 145.880/145.840
FUNcube-1 27 Aug 23:41:29 23:45:01 22° 268° (W) 23:48:29 145.935
NANOSAT C BR1 27 Aug 23:42:46 23:44:28 12° 89° (E) 23:46:24 145.865
ESTCUBE 1 27 Aug 23:53:23 23:57:48 61° 74° (ENE) 00:02:15 437.505/2401.250
QB50P1 27 Aug 23:53:33 23:56:19 17° 91° (E) 23:59:13 145.935-145.965
BUGSAT 1 27 Aug 23:56:29 23:56:40 10° 88° (E) 23:57:09 437.445
AUBIESAT-1 28 Aug 00:04:22 00:08:14 40° 102° (ESE) 00:11:48 437.475
M-CUBED/EXP-1 PRIME 28 Aug 00:05:01 00:09:04 50° 104° (ESE) 00:12:47 437.505
DX 1 28 Aug 00:21:05 00:24:53 29° 264° (W) 00:28:40 434.975-435.025
AISAT 28 Aug 00:24:01 00:28:12 43° 262° (W) 00:32:26 437.250
UNISAT 6 28 Aug 00:25:04 00:29:43 77° 285° (WNW) 00:34:13 437.425
50 SAT 28 Aug 00:38:13 00:41:27 23° 266° (W) 00:44:37 437.505
CUBEBUG 1 28 Aug 00:38:53 00:43:05 51° 261° (W) 00:47:19 437.445
TISAT 1 28 Aug 00:39:21 00:42:52 27° 69° (ENE) 00:46:29 437.305
UKube-1 28 Aug 00:41:44 00:44:57 20° 267° (W) 00:48:05 .
YUBILEINY 28 Aug 00:42:40 00:49:10 21° 299° (WNW) 00:55:20 435.215
POLYITAN 1 28 Aug 00:51:28 00:55:49 78° 102° (ESE) 01:00:07 437.675
SPROUT 28 Aug 00:52:07 00:56:21 66° 75° (ENE) 01:00:38 437.525
VELOX 1 28 Aug 00:54:36 00:58:03 22° 267° (W) 01:01:26 145.980
TIGRISAT 28 Aug 00:55:50 01:00:08 38° 289° (WNW) 01:04:19 435.000
POPSAT HIP 1 28 Aug 00:55:57 01:00:17 85° 104° (ESE) 01:04:35 437.405
DUCHIFAT 1 28 Aug 01:00:37 01:04:56 88° 270° (W) 01:09:12 145.980
ANTELSAT 28 Aug 01:11:18 01:15:11 26° 292° (WNW) 01:18:55 437.575/2403.000
QB50P2 28 Aug 01:11:47 01:16:03 61° 286° (WNW) 01:20:16 145.880/145.840
NANOSAT C BR1 28 Aug 01:16:29 01:20:43 57° 286° (WNW) 01:24:54 145.865
RS-15 28 Aug 01:22:40 01:33:35 43° 39° (NE) 01:45:01 29.354- 29.394
SWISSCUBE 28 Aug 01:22:52 01:25:57 18° 64° (ENE) 01:29:11 437.505
Cosmos 2504 28 Aug 01:24:05 01:32:02 68° 281° (W) 01:40:32 435.465 / 435.565
QB50P1 28 Aug 01:28:20 01:32:24 41° 288° (WNW) 01:36:26 145.935-145.965
BUGSAT 1 28 Aug 01:28:26 01:32:40 69° 285° (WNW) 01:36:53 437.445
ESTCUBE 1 28 Aug 01:33:07 01:35:09 12° 272° (W) 01:36:58 437.505/2401.250
AUBIESAT-1 28 Aug 01:39:53 01:42:36 17° 301° (WNW) 01:45:05 437.475
M-CUBED/EXP-1 PRIME 28 Aug 01:40:59 01:43:24 15° 302° (WNW) 01:45:35 437.505
BEESAT 3 28 Aug 01:43:41 01:47:42 63° 55° (NE) 01:51:38 437.485
BEESAT 2 28 Aug 01:48:57 01:52:57 54° 54° (NE) 01:56:53 435.950
AIST 2 28 Aug 01:54:56 01:57:39 17° 41° (NE) 02:00:26 435.215
ITUPSAT 1 28 Aug 01:57:44 02:02:00 34° 70° (ENE) 02:06:20 437.325
DANDE 28 Aug 02:01:38 02:04:42 81° 98° (E) 02:08:44 436.750
CUSAT 1 28 Aug 02:06:21 02:09:43 48° 286° (WNW) 02:14:12 437.405
SO-50 28 Aug 02:13:46 02:17:21 22° 112° (ESE) 02:21:09 436.795
TISAT 1 28 Aug 02:15:06 02:18:36 25° 265° (W) 02:22:04 437.305
POLYITAN 1 28 Aug 02:30:07 02:31:09 11° 297° (WNW) 02:31:57 437.675
SPROUT 28 Aug 02:31:54 02:32:58 11° 273° (W) 02:33:46 437.525
BEESAT 28 Aug 02:33:20 02:38:06 80° 75° (ENE) 02:42:54 436.000
SWISSCUBE 28 Aug 02:58:47 03:03:27 52° 260° (W) 03:08:07 437.505
Oscar 19 28 Aug 03:08:21 03:13:36 78° 104° (ESE) 03:18:48 437.125/150
STARS 28 Aug 03:13:21 03:16:33 20° 67° (ENE) 03:19:52 437.465
Gurwin Techsat 1B 28 Aug 03:14:06 03:18:33 27° 94° (E) 03:23:05 435.225
KKS-1 28 Aug 03:19:41 03:23:48 39° 71° (ENE) 03:27:59 437.445
Cosmos 2504 28 Aug 03:22:16 03:26:20 14° 305° (NW) 03:29:56 435.465 / 435.565
BEESAT 3 28 Aug 03:23:46 03:25:08 11° 251° (WSW) 03:26:17 437.485
BEESAT 2 28 Aug 03:28:28 03:30:34 14° 250° (WSW) 03:32:30 435.950
GONETS M04 28 Aug 03:29:46 03:37:35 41° 88° (E) 03:45:34
AIST 2 28 Aug 03:32:30 03:36:38 60° 241° (WSW) 03:40:40 435.215
RS-15 28 Aug 03:35:13 03:46:58 69° 243° (WSW) 03:59:02 29.354- 29.394
ITUPSAT 1 28 Aug 03:35:58 03:39:58 25° 266° (W) 03:43:53 437.325
PCSat 28 Aug 03:38:53 03:44:13 64° 116° (ESE) 03:49:36 145.827
SO-50 28 Aug 03:52:58 03:57:37 47° 309° (NW) 04:02:23 436.795
ITAMSAT 1 28 Aug 03:57:28 04:02:33 56° 100° (E) 04:07:39 435.822/435.867
JAS-2 28 Aug 04:02:42 04:09:22 40° 94° (E) 04:15:24 435.910
BEESAT 28 Aug 04:15:32 04:16:38 10° 273° (W) 04:17:23 436.000
HORYU 2 28 Aug 04:23:43 04:25:04 11° 88° (E) 04:26:40 437.375
MOZHAYETS 4 28 Aug 04:36:48 04:40:59 36° 71° (ENE) 04:45:13
STARS 28 Aug 04:48:38 04:52:45 38° 262° (W) 04:56:54 437.465
Oscar 19 28 Aug 04:49:32 04:52:22 14° 299° (WNW) 04:54:58 437.125/150
Gurwin Techsat 1B 28 Aug 04:53:44 04:58:38 38° 291° (WNW) 05:03:28 435.225
KKS-1 28 Aug 04:57:19 05:00:37 20° 268° (W) 05:03:48 437.445
PCSat 28 Aug 05:23:56 05:28:08 22° 316° (NW) 05:32:15 145.827
Cosmos 2499 28 Aug 05:24:03 05:32:05 57° 91° (E) 05:40:40 435.465 / 435.565
GONETS M04 28 Aug 05:26:11 05:34:25 44° 288° (WNW) 05:42:36
AO-7 28 Aug 05:26:28 05:34:38 59° 103° (ESE) 05:42:48 29.400- 29.500
ITAMSAT 1 28 Aug 05:38:01 05:41:41 19° 296° (WNW) 05:45:11 435.822/435.867
SO-50 28 Aug 05:38:29 05:39:27 10° 331° (NNW) 05:40:15 436.795
JAS-2 28 Aug 05:47:45 05:54:24 38° 295° (WNW) 06:00:18 435.910
RS-15 28 Aug 05:51:19 05:57:42 15° 261° (W) 06:03:04 29.354- 29.394
O/OREOS (USA 219) 28 Aug 05:51:33 05:55:34 29° 59° (ENE) 05:59:35 437.305
HORYU 2 28 Aug 05:57:47 06:02:15 66° 286° (WNW) 06:06:39 437.375
VERMONT LUNAR 28 Aug 06:02:23 06:04:40 20° 155° (SSE) 06:06:59 437.305
MOZHAYETS 4 28 Aug 06:14:37 06:18:19 23° 267° (W) 06:21:55
CUBESAT XI-V 28 Aug 06:18:35 06:22:45 36° 71° (ENE) 06:26:59 437.345
Cubesat XI-IV 28 Aug 06:44:28 06:47:20 15° 89° (E) 06:50:28 437.490
PRISM 28 Aug 07:01:21 07:04:05 18° 67° (ENE) 07:06:57 437.425
Cosmos 2499 28 Aug 07:18:20 07:25:47 33° 293° (WNW) 07:33:25 435.465 / 435.565
AO-7 28 Aug 07:19:52 07:27:05 33° 301° (WNW) 07:34:07 29.400- 29.500
CUTE-I 28 Aug 07:29:16 07:34:13 40° 97° (E) 07:39:13 437.470
O/OREOS (USA 219) 28 Aug 07:30:58 07:34:57 29° 256° (WSW) 07:38:53 437.305
VERMONT LUNAR 28 Aug 07:37:54 07:40:50 61° 171° (S) 07:43:48 437.305
STRAND 1 28 Aug 07:40:03 07:45:07 71° 74° (ENE) 07:50:13 437.568
CUBESAT XI-V 28 Aug 07:56:41 08:00:19 22° 267° (W) 08:03:51 437.345
BRITE-PL 28 Aug 08:05:39 08:09:19 19° 90° (E) 08:13:19 437.365/2234.400
Cubesat XI-IV 28 Aug 08:22:44 08:28:02 68° 287° (WNW) 08:33:19 437.490
AIST 1 28 Aug 08:28:54 08:30:57 14° 87° (E) 08:33:12
PRISM 28 Aug 08:35:26 08:39:16 37° 262° (W) 08:43:06 437.425
PHONESAT 2.4 28 Aug 08:38:01 08:41:05 32° 158° (SSE) 08:44:10 2401.200-2431.200
YUBILEINY 28 Aug 08:52:39 09:00:53 42° 72° (ENE) 09:09:11 435.215
GOMX 1 28 Aug 08:55:24 09:00:12 32° 94° (E) 09:05:08 467.674
CANX-2 28 Aug 09:01:17 09:03:09 13° 89° (E) 09:05:13 2200.000
CUTE-I 28 Aug 09:09:42 09:14:10 27° 294° (WNW) 09:18:30 437.470
CINEMA 3 28 Aug 09:11:03 09:12:18 11° 85° (E) 09:13:54 145.822/145.860
HO-68 28 Aug 09:12:35 09:18:21 26° 92° (E) 09:24:17 435.675
VERMONT LUNAR 28 Aug 09:14:16 09:17:14 70° 187° (S) 09:20:13 437.305
STRAND 1 28 Aug 09:22:19 09:24:56 13° 272° (W) 09:27:17 437.568
DOVE 4 28 Aug 09:29:20 09:34:20 41° 97° (E) 09:39:21 437.250
SEEDS 28 Aug 09:29:25 09:32:23 19° 92° (E) 09:35:27 437.485
Cosmos 2491 28 Aug 09:38:56 09:46:44 40° 87° (E) 09:54:40 435.465 / 435.565
BRITE-PL 28 Aug 09:42:53 09:48:12 60° 286° (WNW) 09:53:44 437.365/2234.400
UNISAT 6 28 Aug 09:50:52 09:52:00 11° 61° (ENE) 09:53:25 437.425
COMPASS 1 28 Aug 09:57:47 10:01:28 30° 96° (E) 10:05:10 437.405
AIST 1 28 Aug 10:04:07 10:08:13 46° 282° (WNW) 10:12:20
AAUSAT CUBESAT 2 28 Aug 10:11:36 10:15:26 37° 97° (E) 10:19:17 437.432
PHONESAT 2.4 28 Aug 10:15:22 10:18:46 74° 175° (S) 10:22:10 2401.200-2431.200
TIGRISAT 28 Aug 10:18:42 10:22:02 20° 66° (ENE) 10:25:33 435.000
CUTE 1.7 + AOD 2 28 Aug 10:21:52 10:26:08 84° 284° (WNW) 10:30:20 437.475
ANTELSAT 28 Aug 10:33:17 10:37:15 29° 69° (ENE) 10:41:21 437.575/2403.000
GOMX 1 28 Aug 10:33:26 10:38:17 35° 290° (WNW) 10:43:10 467.674
CANX-2 28 Aug 10:35:19 10:39:28 52° 286° (WNW) 10:43:34 2200.000
NANOSAT C BR1 28 Aug 10:37:06 10:37:34 10° 62° (ENE) 10:38:17 145.865
SO-50 28 Aug 10:44:21 10:48:24 25° 43° (NE) 10:52:26 436.795
CINEMA 3 28 Aug 10:45:09 10:50:14 83° 284° (WNW) 10:55:11 145.822/145.860
PCSat 28 Aug 10:46:01 10:47:12 11° 33° (NNE) 10:48:37 145.827
QB50P1 28 Aug 10:47:14 10:49:21 14° 65° (ENE) 10:51:38 145.935-145.965
Oscar 11 28 Aug 10:47:25 10:51:31 41° 98° (E) 10:55:35 145.826/435.025
YUBILEINY 28 Aug 10:49:34 10:57:47 43° 272° (W) 11:05:49 435.215
AUBIESAT-1 28 Aug 10:50:27 10:55:06 60° 69° (ENE) 10:59:46 437.475
VERMONT LUNAR 28 Aug 10:50:53 10:53:29 27° 202° (SSW) 10:56:05 437.305
M-CUBED/EXP-1 PRIME 28 Aug 10:51:34 10:56:20 72° 71° (ENE) 11:01:08 437.505
DANDE 28 Aug 10:56:55 11:00:36 15° 62° (ENE) 11:05:03 436.750
CUSAT 1 28 Aug 10:58:05 11:03:32 22° 65° (ENE) 11:09:44 437.405
HO-68 28 Aug 10:59:30 11:06:34 60° 291° (WNW) 11:13:35 435.675
ISS 28 Aug 11:02:02 11:05:08 44° 139° (SE) 11:08:15 145.825
CUBEBUG 2 28 Aug 11:03:11 11:07:56 71° 101° (E) 11:12:33 437.445
SEEDS 28 Aug 11:04:28 11:08:18 35° 289° (WNW) 11:12:05 437.485
DELFI C3 28 Aug 11:04:54 11:08:42 40° 98° (E) 11:12:28 145.870
HUMSAT D 28 Aug 11:05:33 11:08:09 16° 90° (E) 11:10:52 437.325/437.525
DOVE 4 28 Aug 11:07:27 11:11:52 27° 292° (WNW) 11:16:12 437.250
Cosmos 2504 28 Aug 11:10:46 11:18:47 43° 72° (ENE) 11:26:30 435.465 / 435.565
UWE-3 28 Aug 11:18:49 11:23:30 81° 102° (ESE) 11:28:01 435.000/436.395/437.385
ZACube-1 28 Aug 11:21:16 11:25:48 65° 100° (E) 11:30:12 437.345
UNISAT 6 28 Aug 11:23:27 11:28:07 87° 257° (WSW) 11:32:52 437.425
FUNcube-1 28 Aug 11:28:34 11:33:07 75° 102° (ESE) 11:37:32 145.935
COMPASS 1 28 Aug 11:33:44 11:37:00 22° 291° (WNW) 11:40:08 437.405
Cosmos 2491 28 Aug 11:35:17 11:43:33 45° 287° (WNW) 11:51:46 435.465 / 435.565
POLYITAN 1 28 Aug 11:44:13 11:48:23 58° 74° (ENE) 11:52:38 437.675
ESTCUBE 1 28 Aug 11:47:48 11:49:41 13° 89° (E) 11:51:49 437.505/2401.250
AAUSAT CUBESAT 2 28 Aug 11:47:52 11:50:48 18° 293° (WNW) 11:53:36 437.432
POPSAT HIP 1 28 Aug 11:48:28 11:52:38 63° 75° (ENE) 11:56:53 437.405
DUCHIFAT 1 28 Aug 11:52:38 11:56:48 67° 75° (ENE) 12:01:03 145.980
PHONESAT 2.4 28 Aug 11:53:13 11:56:35 62° 192° (SSW) 11:59:58 2401.200-2431.200
TIGRISAT 28 Aug 11:54:03 11:58:30 43° 262° (W) 12:03:00 435.000
QB50P2 28 Aug 12:04:18 12:08:32 83° 255° (WSW) 12:12:51 145.880/145.840
NANOSAT C BR1 28 Aug 12:08:36 12:12:49 78° 258° (WSW) 12:17:06 145.865
DX 1 28 Aug 12:08:37 12:12:49 45° 99° (E) 12:17:02 434.975-435.025
ANTELSAT 28 Aug 12:09:53 12:13:59 29° 266° (W) 12:18:05 437.575/2403.000
50 SAT 28 Aug 12:12:29 12:16:05 36° 97° (E) 12:19:40 437.505
AISAT 28 Aug 12:14:23 12:18:27 34° 97° (E) 12:22:34 437.250
BUGSAT 1 28 Aug 12:18:14 12:22:17 82° 76° (ENE) 12:26:24 437.445
QB50P1 28 Aug 12:20:38 12:24:47 55° 260° (W) 12:28:59 145.935-145.965
Oscar 11 28 Aug 12:24:24 12:27:25 18° 293° (WNW) 12:30:18 145.826/435.025
SO-50 28 Aug 12:24:27 12:29:15 51° 242° (WSW) 12:33:54 436.795
CINEMA 3 28 Aug 12:25:20 12:26:39 11° 300° (WNW) 12:27:42 145.822/145.860
PCSat 28 Aug 12:26:43 12:32:01 52° 55° (NE) 12:37:18 145.827
AUBIESAT-1 28 Aug 12:27:13 12:30:10 16° 265° (W) 12:32:56 437.475
UKube-1 28 Aug 12:27:34 12:31:54 66° 102° (ESE) 12:36:12 .
CUBEBUG 1 28 Aug 12:27:43 12:31:30 28° 95° (E) 12:35:21 437.445
M-CUBED/EXP-1 PRIME 28 Aug 12:29:11 12:31:36 13° 267° (W) 12:33:46 437.505
DANDE 28 Aug 12:37:36 12:44:44 73° 79° (E) 12:53:10 436.750
ISS 28 Aug 12:38:48 12:41:38 27° 336° (NNW) 12:44:29 145.825
CUSAT 1 28 Aug 12:39:19 12:46:49 83° 262° (W) 12:55:06 437.405
HUMSAT D 28 Aug 12:40:05 12:44:09 42° 288° (WNW) 12:48:07 437.325/437.525
SPROUT 28 Aug 12:40:49 12:42:13 12° 88° (E) 12:43:53 437.525
DELFI C3 28 Aug 12:40:57 12:43:27 16° 293° (WNW) 12:45:49 145.870
CUBEBUG 2 28 Aug 12:41:41 12:44:03 13° 297° (WNW) 12:46:09 437.445
VELOX 1 28 Aug 12:43:34 12:48:01 69° 102° (ESE) 12:52:28 145.980
Oscar 19 28 Aug 12:48:52 12:51:36 15° 62° (ENE) 12:54:34 437.125/150
HO-68 28 Aug 12:50:19 12:53:01 12° 309° (NW) 12:55:18 435.675
UWE-3 28 Aug 12:57:45 12:59:23 11° 298° (WNW) 13:00:46 435.000/436.395/437.385
ZACube-1 28 Aug 12:59:19 13:01:37 14° 297° (WNW) 13:03:43 437.345
Cosmos 2504 28 Aug 13:03:07 13:11:01 42° 273° (W) 13:18:25 435.465 / 435.565
FUNcube-1 28 Aug 13:07:07 13:08:49 12° 298° (WNW) 13:10:18 145.935
ESTCUBE 1 28 Aug 13:22:35 13:27:02 60° 286° (WNW) 13:31:27 437.505/2401.250
POLYITAN 1 28 Aug 13:22:53 13:24:44 12° 272° (W) 13:26:22 437.675
POPSAT HIP 1 28 Aug 13:27:39 13:29:01 11° 272° (W) 13:30:06 437.405
PHONESAT 2.4 28 Aug 13:31:27 13:34:10 22° 207° (SSW) 13:36:51 2401.200-2431.200
DUCHIFAT 1 28 Aug 13:32:37 13:33:10 10° 273° (W) 13:33:26 145.980
GONETS M04 28 Aug 13:40:06 13:46:02 20° 61° (ENE) 13:52:23
ITAMSAT 1 28 Aug 13:40:16 13:41:51 12° 59° (ENE) 13:43:43 435.822/435.867
DX 1 28 Aug 13:45:47 13:48:45 18° 295° (WNW) 13:51:36 434.975-435.025
50 SAT 28 Aug 13:47:49 13:50:21 16° 293° (WNW) 13:52:45 437.505
AISAT 28 Aug 13:51:17 13:54:52 23° 293° (WNW) 13:58:21 437.250
TISAT 1 28 Aug 13:58:28 14:02:37 48° 99° (E) 14:06:46 437.305
CUBEBUG 1 28 Aug 14:04:03 14:07:48 27° 291° (WNW) 14:11:28 437.445
UKube-1 28 Aug 14:05:37 14:07:33 12° 297° (WNW) 14:09:16 .
PCSat 28 Aug 14:10:55 14:15:07 22° 252° (WSW) 14:19:09 145.827
SPROUT 28 Aug 14:14:29 14:18:47 62° 285° (WNW) 14:23:04 437.525
JAS-2 28 Aug 14:14:34 14:20:04 23° 59° (ENE) 14:25:56 435.910
ISS 28 Aug 14:17:04 14:18:50 14° 356° (N) 14:20:37 145.825
DANDE 28 Aug 14:21:47 14:27:34 24° 271° (W) 14:33:42 436.750
VELOX 1 28 Aug 14:22:02 14:24:04 13° 297° (WNW) 14:25:53 145.980
CUSAT 1 28 Aug 14:23:57 14:28:44 17° 275° (W) 14:33:16 437.405
Oscar 19 28 Aug 14:25:15 14:30:24 74° 258° (WSW) 14:35:37 437.125/150
BEESAT 28 Aug 14:34:22 14:37:46 20° 92° (E) 14:41:19 436.000
Gurwin Techsat 1B 28 Aug 14:35:05 14:40:04 44° 70° (ENE) 14:45:07 435.225
AO-7 28 Aug 14:36:39 14:41:48 19° 51° (NE) 14:47:17 29.400- 29.500
